[[{"header":{"parameterUnit":"m.s-1","parameterCategory":1,"la1":30.2991,"la2":30.254,"lo1":-89.0895,"lo2":-89.0444,"dy":0.0017,"dx":0.0017,"nx":28,"ny":28,"refTime":"2025-07-10T03:00:00:Z","depth":0,"parameterNumber":2,"parameterNumberName":"U-component_of_WINDS"},"data":[0,0,0,0,0,0,0,0,0,0,0,0,0,0,0,0,0,0,0,0,0,0,0,0,0,0,0,0,0,0,0,0,0,0,0,0,0,0,0,0,0,0,0,0,0,0,0,0,0,0,0,0,0,0,0,0,0,0,2.9072,2.9074,0,2.9216,2.9218,2.9219,2.9189,2.9186,2.9184,2.9181,2.9331,2.9337,2.9344,0,0,0,0,0,0,0,0,0,0,0,0,0,2.8771,2.8777,2.9072,2.9074,2.9076,2.9216,2.9218,2.922,2.919,2.9186,2.9183,2.918,2.9329,2.9337,2.9344,0,0,0,0,0,0,0,0,0,0,0,0,0,2.8907,2.8779,2.9072,2.9077,2.9079,2.9215,2.9218,2.922,2.919,2.9186,2.9182,2.9179,2.9327,2.9336,2.9346,2.9485,0,0,2.9375,2.9379,0,0,0,0,0,0,0,0,2.89,2.8918,2.9075,2.9077,2.908,2.918,2.9166,2.9309,2.9191,2.9148,2.9181,2.9177,2.9284,2.9297,2.9333,2.9492,2.9499,2.9376,2.9382,2.9386,2.9389,0,0,0,0,0,0,0,2.889,2.8912,2.9129,2.9077,2.908,2.9073,2.9088,2.9193,2.9237,2.9152,2.915,2.9167,2.9285,2.9324,2.9336,2.9501,2.9376,2.9384,2.939,2.9394,2.9778,2.9783,0,0,0,0,0,0,2.8878,2.8904,2.9124,2.9133,2.8978,2.9081,2.9098,2.9152,2.9236,2.9245,2.917,2.9165,2.9309,2.9325,2.9342,2.9508,2.9386,2.9395,2.9401,2.9774,2.9779,2.9784,0,0,0,0,0,0,2.8872,2.8898,2.9119,2.9018,2.9046,2.9091,2.9152,2.9157,2.9196,2.925,2.9258,2.9202,2.9307,2.9328,2.9449,2.9513,2.94,2.9408,2.9769,2.9776,2.9782,2.9845,0,0,0,0,0,0,2.8864,2.8896,2.895,2.902,2.9051,2.9224,2.9156,2.9163,2.9212,2.9207,2.9282,2.929,2.9305,2.9434,2.9458,2.9525,2.9416,2.9763,2.9772,2.978,2.9837,2.9852,2.9866,0,0,0,0,0,2.8853,2.8964,2.8953,2.898,2.912,2.9228,2.9246,2.926,2.9218,2.9272,2.9306,2.9288,2.9502,2.9447,2.9474,2.9544,2.9759,2.977,2.9779,2.9831,2.9849,2.9865,0,0,0,0,0,0,2.8903,2.8973,2.8962,2.9099,2.9157,2.9222,2.9291,2.928,2.9353,2.9345,2.936,2.9377,2.9499,2.9534,2.9471,2.9682,2.9625,2.9641,2.9655,2.9673,2.9687,2.9676,2.9424,0,0,0,0,0,2.8929,2.901,2.9068,2.9183,2.9212,2.9247,2.9294,2.93,2.9361,2.9386,2.943,2.949,2.9571,2.9624,2.9702,2.9842,2.9856,2.9903,2.9917,2.9929,2.9942,3.0015,3.0036,2.9817,2.9816,2.9816,0,0,2.8985,2.9034,2.9085,2.9194,2.924,2.9323,2.9268,2.936,2.9421,2.9401,2.9516,2.955,2.9619,2.9749,2.9808,2.9782,3.0005,2.9941,2.995,2.9957,3.0028,3.0048,3.0067,2.9823,2.9822,2.9821,0,0,2.913,2.9175,2.9274,2.9321,2.939,2.9412,2.9435,2.9502,2.9522,2.9639,2.9624,2.9698,2.9837,2.9886,2.9929,3.0087,3.0073,3.0112,3.0188,3.0259,3.0276,3.0292,3.0346,3.0366,3.0126,3.0126,3.0126,0,2.9191,2.9316,2.9327,2.9419,2.9466,2.9449,2.9549,2.9593,2.9685,2.9718,2.9686,2.9858,2.9904,3.0044,3.0082,3.0118,3.0144,3.0104,3.0273,3.0288,3.0303,3.0355,3.0376,3.013,3.0129,3.0129,3.0129,0,2.9387,2.9473,2.9545,2.9631,2.9687,2.9782,2.9807,2.9862,2.9862,2.9886,3.0003,3.0057,3.0143,3.0177,3.0179,3.0316,3.0297,3.0269,3.0212,3.0328,3.0377,3.0397,3.0136,3.0134,3.0133,3.0132,0,0,2.9569,2.9657,2.9683,2.9721,2.9794,2.9861,2.9955,3.0038,3.0083,3.0147,3.0224,3.0341,3.0314,3.0363,3.037,3.0433,3.0552,3.0397,3.0399,3.0422,3.0704,3.0724,3.0747,3.0543,3.0546,3.055,3.0697,0,2.9719,2.9883,2.9894,3.0042,3.012,3.0104,3.0185,3.0238,3.0263,3.0333,3.0361,3.0442,3.0402,3.0431,3.0493,3.0525,3.0609,3.0514,3.0614,3.0618,3.0597,3.0773,3.0795,3.0932,3.0717,3.072,3.0723,0,2.9916,2.9982,3.0138,3.0196,3.023,3.0303,3.0378,3.0445,3.0505,3.0518,3.0571,3.0568,3.0663,3.0602,3.0732,3.0667,3.0709,3.073,3.0736,3.0746,3.0677,3.0786,3.0976,3.0996,3.0754,3.0751,3.0749,0,3.0031,3.0159,3.0268,3.0301,3.0373,3.0424,3.0456,3.0511,3.0559,3.0625,3.0656,3.0732,3.0774,3.0833,3.085,3.0805,3.0979,3.0921,3.0992,3.0992,3.103,3.1027,3.1229,3.1058,3.1058,3.1058,3.1057,0,3.0197,3.0292,3.0319,3.0386,3.0492,3.0503,3.0607,3.0636,3.0685,3.0756,3.0747,3.0815,3.0834,3.0904,3.0919,3.1023,3.1042,3.1055,3.1058,3.1056,3.1054,3.1083,3.1073,3.1063,3.1062,3.1061,3.106,0,3.0343,3.0366,3.0482,3.054,3.0556,3.0631,3.068,3.0744,3.0765,3.0856,3.0878,3.0913,3.0995,3.1018,3.1118,3.1127,3.1249,3.1243,3.1228,3.1228,3.1297,3.129,3.1524,3.1554,3.1365,3.1367,3.1368,0,3.0447,3.052,3.0583,3.063,3.0664,3.0739,3.0787,3.08,3.085,3.0921,3.0976,3.1056,3.1121,3.1253,3.1288,3.1363,3.1358,3.1435,3.137,3.1364,3.1357,3.1352,3.1359,3.1447,3.1449,3.1451,3.1452,0,3.0629,3.0635,3.0704,3.0776,3.0833,3.089,3.0946,3.0984,3.1005,3.1061,3.1144,3.1194,3.1294,3.1374,3.1449,3.1482,3.1471,3.1472,3.1492,3.1491,3.1478,3.1484,3.126,3.1467,3.1466,3.1464,3.1464,3.1463,3.0757,3.0819,3.0872,3.0948,3.099,3.1041,3.1103,3.1131,3.12,3.128,3.1284,3.1373,3.1428,3.1527,3.1564,3.1634,3.1611,3.1641,3.1649,3.1656,3.1661,3.1467,3.1648,3.1648,3.1648,3.1647,3.1647,0,3.0937,3.0969,3.1039,3.1114,3.1174,3.1155,3.1214,3.1265,3.1344,3.1395,3.1458,3.1552,3.1628,3.1667,3.1742,3.179,3.1787,3.181,3.1806,3.1813,3.1678,3.1652,3.1811,3.1811,3.1811,3.1811,3.1811,3.1811,3.1037,3.114,3.1152,3.1275,3.1307,3.1393,3.1428,3.1475,3.1515,3.1619,3.1682,3.1706,3.1752,3.183,3.1898,3.1907,3.1935,3.1961,3.1967,3.184,3.1823,3.1807,3.1783,3.1967,3.1967,3.2097,3.2098,3.2099]},{"header":{"parameterUnit":"m.s-1","parameterCategory":1,"la1":30.2991,"la2":30.254,"lo1":-89.0895,"lo2":-89.0444,"dy":0.0017,"dx":0.0017,"nx":28,"ny":28,"refTime":"2025-07-10T03:00:00:Z","depth":0,"parameterNumber":3,"parameterNumberName":"V-component_of_WINDS"},"data":[0,0,0,0,0,0,0,0,0,0,0,0,0,0,0,0,0,0,0,0,0,0,0,0,0,0,0,0,0,0,0,0,0,0,0,0,0,0,0,0,0,0,0,0,0,0,0,0,0,0,0,0,0,0,0,0,0,0,0.4774,0.4774,0,0.4755,0.4754,0.4754,0.4716,0.4715,0.4715,0.4714,0.4695,0.4695,0.4696,0,0,0,0,0,0,0,0,0,0,0,0,0,0.4778,0.4778,0.4774,0.4774,0.4774,0.4755,0.4754,0.4754,0.4716,0.4715,0.4714,0.4714,0.4695,0.4695,0.4696,0,0,0,0,0,0,0,0,0,0,0,0,0,0.4769,0.4778,0.4774,0.4753,0.475,0.4755,0.4754,0.4754,0.4716,0.4715,0.4714,0.4713,0.4695,0.4695,0.4696,0.472,0,0,0.4696,0.4697,0,0,0,0,0,0,0,0,0.477,0.4769,0.4756,0.4754,0.4752,0.4737,0.4749,0.4743,0.4717,0.4729,0.4714,0.4713,0.471,0.4709,0.4708,0.4719,0.4718,0.4696,0.4697,0.4697,0.4697,0,0,0,0,0,0,0,0.477,0.477,0.4767,0.4756,0.4753,0.4743,0.4741,0.4747,0.4726,0.4728,0.4725,0.4723,0.4709,0.4708,0.4707,0.4718,0.4696,0.4697,0.4697,0.4697,0.4744,0.4746,0,0,0,0,0,0,0.4774,0.4771,0.4767,0.4766,0.4758,0.4744,0.4741,0.4743,0.4726,0.4722,0.4724,0.4722,0.4708,0.4707,0.4706,0.4732,0.4697,0.4697,0.4697,0.4743,0.4745,0.4746,0,0,0,0,0,0,0.4775,0.4774,0.4768,0.4767,0.4766,0.4745,0.4747,0.4743,0.4742,0.4723,0.4719,0.4727,0.4707,0.4706,0.4716,0.473,0.4697,0.4697,0.4742,0.4744,0.4745,0.4784,0,0,0,0,0,0,0.4775,0.4775,0.4784,0.4768,0.4766,0.4779,0.4748,0.4743,0.4742,0.4739,0.4725,0.4722,0.4706,0.4716,0.4716,0.473,0.4698,0.4741,0.4743,0.4745,0.4781,0.4787,0.4791,0,0,0,0,0,0.4775,0.4797,0.4785,0.4785,0.4778,0.478,0.4778,0.4759,0.4744,0.4753,0.474,0.4722,0.4729,0.4717,0.4717,0.4732,0.474,0.4742,0.4745,0.4779,0.4786,0.4791,0,0,0,0,0,0,0.4817,0.4795,0.4781,0.4798,0.4791,0.4773,0.4784,0.4767,0.4765,0.4762,0.4738,0.4735,0.4748,0.4741,0.4728,0.4753,0.4731,0.4734,0.4757,0.4763,0.4768,0.477,0.4698,0,0,0,0,0,0.4828,0.4832,0.4812,0.4829,0.4826,0.4805,0.4806,0.4791,0.4783,0.478,0.4768,0.4761,0.4761,0.4762,0.4761,0.4779,0.4775,0.4789,0.4794,0.4798,0.4801,0.4808,0.4813,0.4754,0.4754,0.4754,0,0,0.4852,0.484,0.4844,0.4837,0.4829,0.4833,0.4803,0.4809,0.4811,0.4781,0.4789,0.478,0.477,0.4784,0.4789,0.4778,0.4816,0.4802,0.4805,0.4805,0.4811,0.4817,0.4822,0.4756,0.4755,0.4755,0,0,0.4896,0.4888,0.49,0.4892,0.488,0.4866,0.4869,0.4853,0.4845,0.4853,0.4829,0.4831,0.4832,0.4825,0.4822,0.4859,0.4842,0.486,0.4886,0.4893,0.4898,0.4902,0.4914,0.4918,0.4862,0.4862,0.4862,0,0.4927,0.4931,0.4908,0.4914,0.4911,0.4882,0.4893,0.4887,0.4877,0.4875,0.4862,0.486,0.4852,0.4862,0.4871,0.487,0.4871,0.4862,0.4899,0.4903,0.4906,0.4917,0.4922,0.4864,0.4864,0.4864,0.4864,0,0.4968,0.4971,0.4982,0.4971,0.4969,0.4978,0.4956,0.4956,0.4941,0.4928,0.4934,0.4922,0.4917,0.4919,0.4905,0.4926,0.4919,0.4903,0.4881,0.4914,0.4924,0.4928,0.4868,0.4867,0.4866,0.4866,0,0,0.5041,0.5014,0.5019,0.5012,0.4995,0.4997,0.5003,0.4997,0.4997,0.499,0.4994,0.4993,0.4977,0.4973,0.4958,0.4964,0.4991,0.4946,0.4945,0.4954,0.5012,0.5025,0.503,0.4979,0.498,0.4981,0.5013,0,0.5081,0.5091,0.5069,0.5083,0.5085,0.5055,0.506,0.505,0.5037,0.5036,0.5021,0.5021,0.5,0.4997,0.5002,0.4987,0.5003,0.4985,0.4982,0.4982,0.4986,0.5035,0.5049,0.508,0.5017,0.5017,0.5018,0,0.513,0.5123,0.5138,0.5117,0.5117,0.5122,0.5113,0.5112,0.5099,0.5089,0.5083,0.5064,0.5067,0.5045,0.5049,0.5037,0.5034,0.5026,0.5027,0.5026,0.5002,0.5035,0.509,0.5094,0.5024,0.5023,0.5023,0,0.518,0.5175,0.5182,0.5177,0.5153,0.5157,0.5148,0.5133,0.513,0.5122,0.5119,0.5112,0.5108,0.5102,0.5081,0.5067,0.5086,0.5063,0.5077,0.5078,0.5083,0.5083,0.5138,0.5082,0.5082,0.5082,0.5082,0,0.5228,0.5237,0.5203,0.5208,0.5217,0.5191,0.52,0.5188,0.5174,0.5175,0.5149,0.515,0.5122,0.5119,0.5103,0.5107,0.5106,0.5097,0.5092,0.5099,0.51,0.5097,0.5095,0.5083,0.5083,0.5083,0.5083,0,0.5286,0.5264,0.5269,0.5245,0.5239,0.5247,0.5226,0.5229,0.5213,0.5213,0.5212,0.5187,0.5183,0.516,0.5151,0.5139,0.5149,0.514,0.5154,0.5151,0.5165,0.5164,0.522,0.5225,0.5167,0.5167,0.5168,0,0.5318,0.5324,0.53,0.5298,0.5289,0.5287,0.5282,0.5256,0.5252,0.5236,0.524,0.5232,0.5226,0.5219,0.52,0.5192,0.5182,0.5202,0.5181,0.5187,0.5181,0.5181,0.5181,0.5207,0.5208,0.5208,0.5209,0,0.5376,0.5363,0.5358,0.5348,0.5343,0.5334,0.5324,0.5323,0.5294,0.5291,0.5285,0.5279,0.5268,0.5261,0.5249,0.5238,0.5218,0.5215,0.5218,0.5225,0.5232,0.5227,0.5165,0.5215,0.5214,0.5214,0.5213,0.5213,0.5421,0.5424,0.5407,0.5401,0.5389,0.5379,0.538,0.5362,0.5357,0.5345,0.533,0.5325,0.5309,0.529,0.5281,0.5276,0.5266,0.527,0.5271,0.5272,0.5275,0.5232,0.5274,0.5274,0.5274,0.5274,0.5274,0,0.5476,0.5463,0.5458,0.5443,0.5437,0.5418,0.5404,0.5401,0.5397,0.5383,0.5376,0.5368,0.536,0.5339,0.5328,0.5329,0.5319,0.5327,0.5326,0.5324,0.5286,0.5284,0.5334,0.5334,0.5334,0.5334,0.5334,0.5334,0.5505,0.5508,0.5494,0.549,0.5477,0.5472,0.5465,0.5455,0.5444,0.5436,0.5428,0.5414,0.5396,0.5384,0.5375,0.5369,0.5366,0.5376,0.5367,0.5333,0.5327,0.5321,0.532,0.5376,0.5376,0.5405,0.5406,0.5406]}]]